Accueil
METAR-TAF:

METAR-TAF

Aéroports :

Passo della Cisa, Italie

latitude: 44-26N, longitude: 009-56E, altitude: 1039 m

Observation

Le bulletin a été fait il y a 3 heures et 46 minutes, à 15:55 UTC
Vent calme
Température 19°C
Humidité 64%
Pression 1019 hPa
Visibilité 10 km ou plus
Nuages épars à une hauteur de 1500 ft

METAR: LIMT 241555Z 00000KT 9999 SCT015 19/12 Q1019 RMK SCT MON LIB VAL NIL VIS MIN 9999

Heure: 21:41 (19:41 UTC)


TAF: absent

Observations et prévisions météorologiques de plus de 4000 aéroports (messages METAR et TAF).

Les stations disponibles sont représentées par des disques jaunes et rouges sur la carte.

Passer la souris dessus pour voir le nom de la station.

Cliquer dessus pour voir les observations et prévisions météorologiques.

Pour changer de carte: cliquez sur les boutons verts avec une croix noire pour zoomer, sur le bouton vert avec un tiret pour effectuer un zoom arrière, ou sur les flèches vertes pour les cartes adjacentes.


METAR-TAF: